Weather History for KWST - January, 2013

Change the Weather History Date:

Tuesday, January 29, 2013

  Actual Average (KGON) Record (KGON)
Temperature  
Mean Temperature 34 °F -  
Max Temperature 39 °F 36 °F 55 °F (2002)
Min Temperature 30 °F 19 °F -2 °F (1961)
Degree Days  
Heating Degree Days 30    
Moisture  
Dew Point 33 °F    
Average Humidity 94    
Maximum Humidity 100    
Minimum Humidity 77    
Precipitation  
Precipitation 0.00 in - - ()
Sea Level Pressure  
Sea Level Pressure 30.12 in    
Wind  
Wind Speed 2 mph (NE)    
Max Wind Speed 10 mph    
Max Gust Speed -    
Visibility 6 miles    
Events Rain    
Averages and records for this station are not official NWS values.
T = Trace of Precipitation, MM = Missing Value Source: NWS Daily Summary

Daily Weather History Graph

Daily Weather History Graph

Search for Another Location

Airport or City:

Trip Planner

Search our weather history database for the weather conditions in past years. The results will help you decide how hot, cold, wet, or windy it might be!

Date:

Astronomy

Jan. 29, 2013 Rise Set
Actual Time 7:01 AM EST 5:00 PM EST
Civil Twilight 6:31 AM EST 5:29 PM EST
Nautical Twilight 5:58 AM EST 6:02 PM EST
Astronomical Twilight 5:26 AM EST 6:35 PM EST
Moon 7:55 PM EST (1/29) 7:54 AM EST (1/29)
Length of Visible Light 10h 57m
Length of Day
9h 58m
Waning Gibbous, 94% of the Moon is Illuminated
Jan 29
Waning Gibbous
Feb 3
Last Quarter
Feb 10
New
Feb 17
First Quarter
Feb 25
Full

Hourly Weather History & Observations

Time (EST) Temp. Windchill Dew Point Humidity Pressure Visibility Wind Dir Wind Speed Gust Speed Precip Events Conditions
12:42 AM 33.8 °F - 33.8 °F 100% 30.00 in 4.0 mi Calm Calm - N/A   Overcast
12:53 AM 34.0 °F - 34.0 °F 100% 30.01 in 4.0 mi Calm Calm - N/A   Overcast
1:43 AM 33.8 °F - 33.8 °F 100% 30.01 in 4.0 mi Calm Calm - N/A   Overcast
1:53 AM 34.0 °F - 34.0 °F 100% 30.01 in 4.0 mi Calm Calm - N/A   Overcast
2:53 AM 34.0 °F - 34.0 °F 100% 30.02 in 4.0 mi Calm Calm - N/A   Overcast
3:38 AM 33.8 °F - 33.8 °F 100% 30.02 in 2.5 mi Calm Calm - N/A   Overcast
3:53 AM 34.0 °F - 34.0 °F 100% 30.03 in 3.0 mi Calm Calm - N/A   Overcast
4:17 AM 33.8 °F - 33.8 °F 100% 30.03 in 2.5 mi Calm Calm - N/A   Overcast
4:28 AM 33.8 °F - 33.8 °F 100% 30.03 in 2.5 mi Calm Calm - N/A   Overcast
4:37 AM 33.8 °F 29.6 °F 33.8 °F 100% 30.04 in 2.5 mi NNE 4.6 mph - N/A   Overcast
4:53 AM 33.1 °F - 33.1 °F 100% 30.05 in 2.0 mi Calm Calm - N/A   Overcast
5:00 AM 33.8 °F 30.8 °F 33.8 °F 100% 30.05 in 2.0 mi NNE 3.5 mph - N/A   Overcast
5:07 AM 32.0 °F 26.4 °F 32.0 °F 100% 30.05 in 1.5 mi NNE 5.8 mph - N/A   Overcast
5:36 AM 32.0 °F 28.7 °F 32.0 °F 100% 30.06 in 2.5 mi NNE 3.5 mph - N/A   Overcast
5:53 AM 32.0 °F 28.7 °F 32.0 °F 100% 30.08 in 3.0 mi NNE 3.5 mph - N/A   Overcast
6:14 AM 32.0 °F - 32.0 °F 100% 30.08 in 3.0 mi Calm Calm - N/A   Mostly Cloudy
6:53 AM 30.9 °F 27.5 °F 30.9 °F 100% 30.10 in 3.0 mi North 3.5 mph - N/A   Mostly Cloudy
7:39 AM 30.2 °F - 30.2 °F 100% 30.12 in 2.5 mi Calm Calm - N/A   Scattered Clouds
7:53 AM 30.9 °F - 30.9 °F 100% 30.12 in 2.0 mi Calm Calm - N/A   Mostly Cloudy
8:15 AM 32.0 °F - 30.2 °F 93% 30.14 in 4.0 mi Calm Calm - N/A   Overcast
8:22 AM 32.0 °F - 30.2 °F 93% 30.14 in 4.0 mi Calm Calm - N/A   Overcast
8:41 AM 32.0 °F - 30.2 °F 93% 30.15 in 6.0 mi Calm Calm - N/A   Overcast
8:53 AM 32.0 °F - 30.9 °F 96% 30.15 in 5.0 mi Calm Calm - N/A   Overcast
9:04 AM 33.8 °F - 30.2 °F 87% 30.15 in 5.0 mi Calm Calm - N/A   Overcast
9:15 AM 33.8 °F 30.8 °F 30.2 °F 87% 30.15 in 6.0 mi NNW 3.5 mph - N/A   Overcast
9:53 AM 34.0 °F 29.8 °F 30.9 °F 89% 30.16 in 9.0 mi North 4.6 mph - N/A   Overcast
10:53 AM 35.1 °F - 32.0 °F 89% 30.18 in 10.0 mi Calm Calm - N/A   Overcast
11:30 AM - - - N/A% 30.16 in 10.0 mi North 3.5 mph - N/A   Scattered Clouds
11:53 AM - - - N/A% 30.15 in 10.0 mi Calm Calm - N/A   Clear
12:53 PM 39.9 °F - 33.1 °F 77% 30.15 in 10.0 mi North - - N/A   Mostly Cloudy
1:08 PM 39.2 °F - 33.8 °F 81% 30.15 in 10.0 mi Calm Calm - N/A   Unknown
1:53 PM 37.9 °F 33.5 °F 33.1 °F 83% 30.16 in 10.0 mi ESE 5.8 mph - N/A   Unknown
2:31 PM 39.2 °F 35.9 °F 33.8 °F 81% 30.15 in 10.0 mi ENE 4.6 mph - N/A   Mostly Cloudy
2:48 PM 39.2 °F 34.2 °F 33.8 °F 81% 30.14 in 10.0 mi East 6.9 mph - N/A   Partly Cloudy
2:53 PM 39.0 °F 34.8 °F 34.0 °F 82% 30.14 in 10.0 mi NE 5.8 mph - N/A   Partly Cloudy
3:13 PM 39.2 °F - 33.8 °F 81% 30.16 in 10.0 mi Calm Calm - N/A   Mostly Cloudy
3:53 PM 37.9 °F - 33.1 °F 83% 30.17 in 10.0 mi Calm Calm - N/A   Overcast
4:40 PM 37.4 °F 30.3 °F 33.8 °F 87% 30.17 in 10.0 mi ESE 10.4 mph - N/A   Overcast
4:53 PM 36.0 °F 29.6 °F 33.1 °F 89% 30.18 in 10.0 mi ESE 8.1 mph - N/A   Overcast
5:03 PM 35.6 °F 28.0 °F 33.8 °F 93% 30.17 in 10.0 mi ESE 10.4 mph - N/A   Overcast
5:11 PM 35.6 °F 30.7 °F 33.8 °F 93% 30.18 in 10.0 mi ESE 5.8 mph - N/A   Overcast
5:27 PM 35.6 °F 30.7 °F 33.8 °F 93% 30.17 in 10.0 mi East 5.8 mph - N/A   Overcast
5:34 PM 35.6 °F 32.8 °F 33.8 °F 93% 30.18 in 10.0 mi ENE 3.5 mph - N/A   Overcast
5:53 PM 36.0 °F 33.3 °F 33.1 °F 89% 30.18 in 9.0 mi ENE 3.5 mph - N/A   Overcast
6:53 PM 37.0 °F 32.4 °F 35.1 °F 93% 30.19 in 9.0 mi South 5.8 mph - N/A   Overcast
7:53 PM 37.0 °F - 35.1 °F 93% 30.17 in 9.0 mi Calm Calm - N/A   Overcast
8:15 PM 37.4 °F 34.9 °F 35.6 °F 93% 30.17 in 9.0 mi NNE 3.5 mph - N/A   Overcast
8:53 PM 36.0 °F 32.1 °F 35.1 °F 97% 30.18 in 9.0 mi North 4.6 mph - N/A   Overcast
9:53 PM 35.1 °F - 34.0 °F 96% 30.17 in 4.0 mi Calm Calm - 0.00 in   Overcast
10:53 PM 35.1 °F - 34.0 °F 96% 30.14 in 2.5 mi Calm Calm - N/A   Overcast
11:06 PM 35.6 °F - 35.6 °F 100% 30.15 in 3.0 mi Calm Calm - N/A   Overcast
11:13 PM 35.6 °F - 33.8 °F 93% 30.14 in 2.0 mi Calm Calm - N/A   Overcast
11:31 PM 35.6 °F - 35.6 °F 100% 30.15 in 3.0 mi North - - N/A   Overcast
11:53 PM 35.1 °F 32.2 °F 34.0 °F 96% 30.16 in 3.0 mi North 3.5 mph - 0.00 in Rain Light Rain